Regional Weather Roundup
Issued by NWS

Home | Current Version | Previous Version | Graphics & Text | Print | Product List | Glossary On
Versions: 1 2 3 4 5 6 7 8 9 10 11 12 13 14 15 16 17 18 19 20 21 22 23 24 25 26 27 28 29 30 31 32 33 34 35 36 37 38 39 40 41 42 43 44 45 46 47 48 49 50
356
ASUS43 KOAX 281910
RWRNE

WEATHER ROUNDUP FOR NEBRASKA
NATIONAL WEATHER SERVICE OMAHA NE
200 PM CDT THU JUL 28 2016

NOTES: SATELLITE DATA IS BEING USED TO AUGMENT CLOUD COVER ABOVE
       12000 FEET.
       "FAIR" INDICATES FEW OR NO CLOUDS BELOW 12,000 FEET WITH NO
       SIGNIFICANT WEATHER AND/OR OBSTRUCTIONS TO VISIBILITY.

  * THESE STATIONS DO NOT REPORT WEATHER SUCH AS RAIN...SNOW OR FOG.

NEZ001>004-019>022-054>056-282000-
NEBRASKA PANHANDLE

CITY           SKY/WX    TMP DP  RH WIND       PRES   REMARKS
SCOTTSBLUFF    SUNNY     72  57  59 E5        30.19R
ALLIANCE       CLOUDY    69  58  67 VRB3      30.17F
CHADRON        SUNNY     72  58  61 VRB3      30.15S
KIMBALL        MOSUNNY   70  55  59 E14       30.22F
SIDNEY         CLOUDY    71  55  56 E17       30.20F
$$

NEZ057>060-069>072-079>082-282000-
SOUTHWEST NEBRASKA

CITY           SKY/WX    TMP DP  RH WIND       PRES   REMARKS
NORTH PLATTE   LGT RAIN  67  63  87 N7        30.16R
IMPERIAL       TSTM      62  60  93 N22G33    30.17S FOG
LEXINGTON      LGT RAIN  70  65  82 N9G21     30.13R
MCCOOK         CLOUDY    79  65  62 E8        30.05F
OGALLALA       LGT RAIN  65  60  84 E3        30.15F
$$

NEZ005>010-023>029-035>040-094-282000-
NORTH CENTRAL NEBRASKA

CITY           SKY/WX    TMP DP  RH WIND       PRES   REMARKS
VALENTINE      PTSUNNY   73  63  70 S6        30.12F
AINSWORTH      PTSUNNY   72  65  80 CALM      30.13F
BROKEN BOW     CLOUDY    75  67  76 N6        30.12R
O`NEILL        PTSUNNY   77  62  58 N6        30.09F
ORD            PTSUNNY   81  63  54 NE10      30.06S
THEDFORD       RAIN      66  64  91 NW3       30.16F
$$

NEZ041-046>049-061>064-073>077-083>087-282000-
SOUTH CENTRAL NEBRASKA

CITY           SKY/WX    TMP DP  RH WIND       PRES   REMARKS
GRAND ISLAND   MOSUNNY   83  62  49 E8        30.04F
AURORA         MOSUNNY   81  64  54 E6        30.04F
HASTINGS       CLOUDY    81  66  60 E9        30.04F
HEBRON         MOSUNNY   84  65  51 NE7       30.02S
HOLDREGE       CLOUDY    75  65  69 E7        30.04S
KEARNEY *      CLOUDY    81  19  10 E9        30.06R
YORK           MOSUNNY   81  64  57 E9        30.03F
$$

NEZ011>018-030>034-042>045-282000-
NORTHEAST NEBRASKA

CITY           SKY/WX    TMP DP  RH WIND       PRES   REMARKS
NORFOLK        CLOUDY    80  59  48 N13       30.05F
ALBION         CLOUDY    78  65  63 NE8       30.06F
BLAIR          PTSUNNY   80  66  61 N7        30.03S
FREMONT        MOSUNNY   81  61  51 N6        30.03F
TEKAMAH        SUNNY     84  60  44 NW9       30.01F
WAYNE          MOSUNNY   79  61  53 N9G16     30.05F
$$

NEZ050>053-065>068-078-088>093-282000-
SOUTHEAST NEBRASKA

CITY           SKY/WX    TMP DP  RH WIND       PRES   REMARKS
LINCOLN        SUNNY     86  62  44 N12       30.02F
OMAHA EPPLEY   MOSUNNY   84  65  52 N14       30.01S
BEATRICE       PTSUNNY   83  66  55 NE8G18    30.00F
FALLS CITY     SUNNY     86  67  52 N10       29.98F
NEBRASKA CITY  MOSUNNY   82  65  56 N7        30.01S
PLATTSMOUTH    PTSUNNY   82  66  57 NW7       30.01S
$$

NEZ044-045-051>053-067-282000-
OMAHA AREA

CITY           SKY/WX    TMP DP  RH WIND       PRES   REMARKS
OMAHA EPPLEY   MOSUNNY   84  65  52 N14       30.01S
BLAIR          PTSUNNY   80  66  61 N7        30.03S
FREMONT        MOSUNNY   81  61  51 N6        30.03F
MILLARD        MOSUNNY   83  65  55 NW8       30.01S
OFFUTT AFB     SUNNY     83  63  51 N8        30.00
PLATTSMOUTH    PTSUNNY   82  66  57 NW7       30.01S
WAHOO          FAIR      81  64  55 N6        30.02F
$$




USA.gov is the U.S. government's official web portal to all federal, state and local government web resources and services.